Rhinelander, WI

12:10 AM CDT on April 27, 2018 (GMT -0500)
Rhinelander-Oneida County

Weather History for KRHI - January, 2013

Change the Weather History Date:

Tuesday, January 8, 2013

  Actual Average Record
Temperature  
Mean Temperature 24 °F 12 °F  
Max Temperature 39 °F 21 °F 48 °F (2003)
Min Temperature 8 °F 3 °F -30 °F (1974)
Degree Days  
Heating Degree Days 42 53  
Month to date heating degree days 419  
Since 1 July heating degree days 4045  
Cooling Degree Days 0 0  
Month to date cooling degree days 0  
Year to date cooling degree days 0  
Moisture  
Dew Point 16 °F    
Average Humidity 83    
Maximum Humidity 100    
Minimum Humidity 49    
Precipitation  
Precipitation 0.00 in 0.04 in 0.54 in (1969)
Month to date precipitation 0.30  
Year to date precipitation 0.30  
Snow  
Snow 0.00 in - 9.00 in (1969)
Month to date snowfall  
Since 1 July snowfall  
Snow Depth -    
Sea Level Pressure  
Sea Level Pressure 29.96 in    
Wind  
Wind Speed 4 mph (South)    
Max Wind Speed 18 mph    
Max Gust Speed 30 mph    
Visibility 5 miles    
Events Fog    
T = Trace of Precipitation, MM = Missing Value Source: NWS Daily Summary

Daily Weather History Graph

Daily Weather History Graph

Search for Another Location

Airport or City:

Astronomy

Jan. 08, 2013 Rise Set
Actual Time 7:37 AM CST 4:32 PM CST
Civil Twilight 7:03 AM CST 5:06 PM CST
Nautical Twilight 6:26 AM CST 5:43 PM CST
Astronomical Twilight 5:50 AM CST 6:19 PM CST
Moon 4:09 AM CST (1/8) 1:34 PM CST (1/8)
Length of Visible Light 10h 02m
Length of Day
8h 54m
Waning Crescent, 13% of the Moon is Illuminated
Jan 8
Waning Crescent
Jan 11
New
Jan 18
First Quarter
Jan 26
Full
Feb 3
Last Quarter

Hourly Weather History & Observations

Time (CST) Temp. Windchill Dew Point Humidity Pressure Visibility Wind Dir Wind Speed Gust Speed Precip Events Conditions
12:53 AM 21.9 °F 14.5 °F 19.0 °F 89% 30.00 in 9.0 mi WSW 5.8 mph - N/A   Scattered Clouds
1:53 AM 21.0 °F 13.4 °F 18.0 °F 88% 30.01 in 6.0 mi SW 5.8 mph - N/A   Clear
2:53 AM 21.9 °F 17.2 °F 19.0 °F 89% 30.02 in 7.0 mi WSW 3.5 mph - N/A   Clear
3:53 AM 19.0 °F 13.9 °F 17.1 °F 92% 30.02 in 4.0 mi SW 3.5 mph - N/A   Clear
4:10 AM 17.6 °F 12.3 °F 15.8 °F 93% 29.95 in 2.5 mi SSW 3.5 mph - N/A   Clear
4:46 AM 17.6 °F - 15.8 °F 93% 29.96 in 1.0 mi Calm Calm - N/A   Clear
4:53 AM 18.0 °F - 16.0 °F 92% 30.04 in 0.5 mi Calm Calm - N/A Fog Light Freezing Fog
5:02 AM 15.8 °F - 15.8 °F 100% 29.96 in 0.2 mi Calm Calm - N/A Fog Light Freezing Fog
5:53 AM 14.0 °F - 12.0 °F 92% 30.04 in 0.2 mi Calm Calm - N/A Fog Light Freezing Fog
6:22 AM 15.8 °F - 14.0 °F 93% 29.97 in 1.0 mi Calm Calm - N/A   Mist
6:29 AM 12.2 °F - 12.2 °F 100% 29.97 in 0.5 mi Calm Calm - N/A Fog Light Freezing Fog
6:36 AM 10.4 °F - 8.6 °F 92% 29.97 in 0.2 mi Calm Calm - N/A Fog Light Freezing Fog
6:53 AM 12.0 °F - 9.0 °F 88% 30.06 in 0.2 mi Calm Calm - N/A Fog Light Freezing Fog
7:07 AM 12.2 °F - 8.6 °F 85% 29.97 in 1.0 mi Calm Calm - N/A   Mist
7:11 AM 12.2 °F - 8.6 °F 85% 29.97 in 2.0 mi Calm Calm - N/A   Scattered Clouds
7:20 AM 12.2 °F - 8.6 °F 85% 29.97 in 1.0 mi Calm Calm - N/A   Mist
7:27 AM 12.2 °F - 10.4 °F 92% 29.98 in 0.5 mi Calm Calm - N/A Fog Light Freezing Fog
7:32 AM 8.6 °F - 6.8 °F 92% 29.98 in 1.5 mi Calm Calm - N/A   Partly Cloudy
7:35 AM 8.6 °F - 6.8 °F 92% 29.98 in 3.0 mi Calm Calm - N/A   Partly Cloudy
7:49 AM 10.4 °F - 6.8 °F 85% 29.98 in 2.5 mi Calm Calm - N/A   Clear
7:53 AM 8.1 °F 1.4 °F 5.0 °F 87% 30.07 in 4.0 mi ENE 3.5 mph - N/A   Clear
8:19 AM 12.2 °F - 8.6 °F 85% 29.99 in 2.0 mi Calm Calm - N/A   Clear
8:26 AM 12.2 °F - 10.4 °F 92% 29.99 in 1.8 mi Calm Calm - N/A   Clear
8:35 AM 12.2 °F - 10.4 °F 92% 29.99 in 2.5 mi Calm Calm - N/A   Clear
8:53 AM 14.0 °F - 12.0 °F 92% 30.08 in 2.5 mi Calm Calm - N/A   Clear
9:03 AM 14.0 °F - 12.2 °F 93% 30.00 in 4.0 mi Calm Calm - N/A   Clear
9:53 AM 19.9 °F - 18.0 °F 92% 30.09 in 6.0 mi Calm Calm - N/A   Clear
10:53 AM 25.0 °F - 21.9 °F 88% 30.07 in 10.0 mi Calm Calm - N/A   Clear
11:53 AM 33.1 °F 27.7 °F 21.9 °F 64% 30.02 in 10.0 mi SE 5.8 mph - N/A   Clear
12:53 PM 37.0 °F 28.9 °F 21.0 °F 52% 29.99 in 10.0 mi South 12.7 mph 16.1 mph N/A   Clear
1:53 PM 39.0 °F 33.4 °F 21.0 °F 49% 29.96 in 10.0 mi SSE 8.1 mph - N/A   Clear
2:53 PM 37.0 °F 29.8 °F 23.0 °F 57% 29.95 in 10.0 mi SSE 10.4 mph - N/A   Clear
3:53 PM 35.1 °F 27.4 °F 24.1 °F 64% 29.94 in 10.0 mi SE 10.4 mph - N/A   Clear
4:53 PM 33.1 °F 25.5 °F 24.1 °F 70% 29.90 in 10.0 mi SE 9.2 mph - N/A   Clear
5:53 PM 32.0 °F 23.6 °F 24.1 °F 73% 29.89 in 10.0 mi South 10.4 mph 20.7 mph N/A   Clear
6:53 PM 30.9 °F 23.5 °F 23.0 °F 72% 29.88 in 9.0 mi SSE 8.1 mph - N/A   Clear
7:53 PM 30.9 °F 21.2 °F 24.1 °F 76% 29.84 in 8.0 mi South 12.7 mph 25.3 mph N/A   Clear
8:42 PM 30.2 °F 19.8 °F 24.8 °F 80% 29.76 in 8.0 mi South 13.8 mph 19.6 mph N/A   Mostly Cloudy
8:53 PM 30.9 °F 22.2 °F 25.0 °F 79% 29.83 in 8.0 mi South 10.4 mph 24.2 mph N/A   Overcast
9:53 PM 33.1 °F 21.9 °F 26.1 °F 75% 29.82 in 9.0 mi SSW 18.4 mph 29.9 mph N/A   Overcast
10:53 PM 33.1 °F 23.4 °F 27.0 °F 78% 29.81 in 8.0 mi SW 13.8 mph 21.9 mph N/A   Overcast
11:53 PM 33.1 °F 22.2 °F 27.0 °F 78% 29.79 in 8.0 mi SW 17.3 mph 26.5 mph N/A   Overcast